Torna al catalogo

COSMOS 2251 DEB

AttivoLEO
NORAD 33816·DEBRIS·🇷🇺 Russia

Lanciato Jun 16, 1993 da Plesetsk Cosmodrome

Loading…

Prossimi Passaggi (prossime 24 ore)

TLE

AggiornatoSource: Space-Track

Epoca: Sep 14, 2026, 05:23 UTC

1 33816U 93036BH  26257.22476146  .00000293  00000-0  22584-3 0  9994
2 33816  73.8975 358.2853 0265918 319.2168  38.9313 13.82141177884795

Traccia COSMOS 2251 DEB in tempo reale con AllMySat

Download on the App Store